NOAA NWS Hourly Roundups by Site

Regional Weather Roundup for Green Bay, WI

To Select Another Site Choose from List

Select Site:  

000
ASUS43 KGRB 152311
RWRGRB

NORTH-CENTRAL AND NORTHEAST WISCONSIN REGIONAL WEATHER ROUNDUP
NATIONAL WEATHER SERVICE GREEN BAY WI
600 PM CDT WED JUL 15 2020

WIZ005-009-010>012-018-019-160000-
NORTH CENTRAL WISCONSIN

CITY           SKY/WX    TMP DP  RH WIND       PRES   REMARKS
IRONWOOD       PTSUNNY   75  57  53 SW7       29.97S
MANITOWISH WTR CLOUDY    73  58  58 S5        30.00S
ARBOR VITAE    CLOUDY    72  64  75 S6        30.02R
EAGLE RIVER    CLOUDY    68  58  70 S3        30.03R
LAND O LAKES   CLOUDY    70  58  66 S5        30.03R
RHINELANDER    CLOUDY    68  59  73 SW3       30.04R
PHILLIPS       SUNNY     71  61  71 S6        30.00F
ANTIGO         CLOUDY    63  62  95 CALM      30.03F
TOMAHAWK       CLOUDY    65  61  85 CALM      30.04R
MERRILL        CLOUDY    67  60  78 CALM      30.03R
$$

WIZ013-073-160000-
NORTHEAST WISCONSIN

CITY           SKY/WX    TMP DP  RH WIND       PRES   REMARKS
IRON MOUNTAIN  CLOUDY    68  61  78 SE8       30.00S
MARINETTE      LGT RAIN  63  60  90 E6        29.99F
OCONTO         CLOUDY    63  60  91 W3        30.01R
$$

WIZ017-030-035>037-045-160000-
CENTRAL WISCONSIN

CITY           SKY/WX    TMP DP  RH WIND       PRES   REMARKS
MEDFORD        CLOUDY    65  61  85 CALM      30.03R
WAUSAU         CLOUDY    65  61  87 S3        30.01F
MOSINEE        CLOUDY    63  61  94 CALM      30.04R
MARSHFIELD     CLOUDY    64  60  87 VRB3      30.02S
WISC RAPIDS    LGT RAIN  66  59  78 CALM      30.04R
STEVENS POINT  LGT RAIN  62  62  99 CALM      30.03S
WAUPACA        CLOUDY    69  64  82 N3        30.03R
SHAWANO        CLOUDY    67  63  87 W5        30.03R
CLINTONVILLE   CLOUDY    67  58  72 N5        30.02R
WAUTOMA        CLOUDY    70  63  78 W3        30.05R
$$

WIZ038-039-048-051-160000-
FOX VALLEY

CITY           SKY/WX    TMP DP  RH WIND       PRES   REMARKS
NWS GREEN BAY  CLOUDY    66  62  87 NE5       29.99S
APPLETON       CLOUDY    64  59  82 E6        29.99F
OSHKOSH        HVY RAIN  67  64  90 E3        30.00R FOG
FOND DU LAC    RAIN      68  66  93 NE8       30.00R FOG
$$

WIZ022-050-052-160000-
EAST CENTRAL WISCONSIN

CITY           SKY/WX    TMP DP  RH WIND       PRES   REMARKS
EPHRAIM        CLOUDY    60  55  83 CALM      30.00F
WASHINGTON ISL LGT RAIN  62  62  99 CALM      30.01R
STURGEON BAY   LGT RAIN  62  58  86 E6        30.01R
MANITOWOC      RAIN      64  62  93 NE5       30.00R
SHEBOYGAN      LGT RAIN  67  65  93 N9G22     29.99S FOG
$$

LMZ563-521-522-541>543-160000-
LAKESHORE

STATION/POSITION TIME  TEMP    WIND        PRES    VSBY  WAVE
                       AIR SEA DIR/SP/G                  HT/PER
                 (UTC) (F)     (DEG/KT/KT) (MB)    (MI)  (FT/S)
SHEBOYGAN LKSHOR 2300   66      20/ 20/ 21   N/A
NORTHPORT PIER   2240   62     290/  4/  5 1016.3R
SISTER BAY LKSHO 2259   61      90/  3/  5   N/A
MENOMINEE LKSHOR 2230      75                N/A
$$



 

View Past Reports for Green Bay, WI.

Products Courtesy of NOAA-NWS
NWS Information Parsing Script by Ken True at Saratoga Weather - Script by SE Lincoln Weather.